Regional Weather Roundup
Issued by NWS

Home | Current Version | Previous Version | Graphics & Text | Print | Product List | Glossary On
Versions: 1 2 3 4 5 6 7 8 9 10 11 12 13 14 15 16 17 18 19 20 21 22 23 24 25 26 27 28 29 30 31 32 33 34 35 36 37 38 39 40 41 42 43 44 45 46 47 48 49 50
000
ASUS45 KSLC 041310
RWRUT

UTAH REGIONAL WEATHER ROUNDUP
NATIONAL WEATHER SERVICE SALT LAKE CITY UT
700 AM MDT MON MAY 04 2015

UTZ001>011-023>025-041400-

NORTHERN UTAH

CITY           SKY/WX    TMP DP  RH WIND       PRES   REMARKS
BRIGHAM CITY   MOCLDY    53  44  70 CALM      29.96S
HILL AFB       PTCLDY    56  42  60 SE9       29.96S
LOGAN          CLEAR     46  42  86 CALM      29.98R
OGDEN          MOCLDY    58  41  53 CALM      29.95R
PROVO AIRPORT  PTCLDY    54  43  66 SE7       29.97R
SALT LAKE CITY MOCLDY    58  43  57 S6        29.94R
VERNAL         PTCLDY    45  37  73 CALM      30.03R
WENDOVER       MOCLDY    55  36  47 NE10      29.92S
HEBER CITY     CLOUDY    50  43  76 W3        30.03R
WEST JORDAN    CLEAR     54  45  71 SW3       29.97R

$$

UTZ012>022-026-027-041400-

SOUTHERN/CENTRAL UTAH

CITY           SKY/WX    TMP DP  RH WIND       PRES   REMARKS
BLANDING       CLOUDY    51  38  63 N7        30.10R
BRYCE CANYON   CLOUDY    42  36  79 NW6       30.09S
CEDAR CITY     MOCLDY    49  43  80 SE9       30.02R
DELTA          MOCLDY    53  39  58 SE6       29.95R
HANKSVILLE     CLOUDY    55  46  71 E6        30.01R
MILFORD        CLOUDY    53  38  56 SW10      29.97R
MOAB/CYNLANDS  CLOUDY    59  41  51 CALM      29.97R
PRICE          PTCLDY    50  37  61 CALM      30.03R
ST GEORGE      PTSUNNY   66  41  39 E6        29.91R
KANAB          MOCLDY    48  39  71 N9        30.04R

$$

REGIONAL REPORTS     COLORADO/ARIZONA

CITY           SKY/WX    TMP DP  RH WIND       PRES   REMARKS
CRAIG, CO      MOCLDY    44  40  85 CALM      30.08R
GRAND JUNCTION PTCLDY    54  42  64 E10       30.01R
RIFLE          PTCLDY    45  42  89 E6        30.06R
MONTROSE       PTCLDY    46  37  71 S7        30.08R
CORTEZ         CLEAR     41  35  79 CALM      30.05R
PAGE, AZ       CLOUDY    59  40  49 W3        29.96R
GRAND CANYON   CLOUDY    35  33  92 NE5       30.05S WCI  31
KINGMAN        CLEAR     59  39  47 SE7       29.88R
FLAGSTAFF      CLOUDY    43  38  82 CALM      30.06R

$$

REGIONAL REPORTS    NEVADA/IDAHO/WYOMING

CITY           SKY/WX    TMP DP  RH WIND       PRES   REMARKS
LAS VEGAS, NV  PTCLDY    70  31  23 SW8       29.76R
ELY            MOCLDY    47  34  60 S15       30.00S
ELKO           CLEAR     41  33  73 CALM      29.96R
POCATELLO, ID  PTCLDY    42  36  79 CALM      29.97R
BURLEY         CLEAR     45  39  79 N5        29.92R
EVANSTON, WY   PTCLDY    42  37  82 NE3       30.08R
ROCK SPRINGS   CLEAR     41  37  86 E5        30.09R
KEMMERER       PTCLDY    36  34  93 N9        30.10R WCI  29

$$



USA.gov is the U.S. government's official web portal to all federal, state and local government web resources and services.